Regional Weather Roundup
Issued by NWS

Home | Current Version | Previous Version | Text Only | Print | Product List | Glossary Off
Versions: 1 2 3 4 5 6 7 8 9 10 11 12 13 14 15 16 17 18 19 20 21 22 23 24 25 26 27 28 29 30 31 32 33 34 35 36 37 38 39 40 41 42 43 44 45 46 47 48 49 50

000
ASUS43 KIND 250759
RWRIN

WEATHER ROUNDUP FOR INDIANA
NATIONAL WEATHER SERVICE INDIANAPOLIS IN
400 AM EDT THU MAY 25 2017

NOTE: "FAIR" INDICATES FEW OR NO CLOUDS BELOW 12,000 FEET WITH NO
SIGNIFICANT WEATHER AND/OR OBSTRUCTIONS TO VISIBILITY.

* - STATION DOES NOT REPORT WEATHER SUCH AS PRECIPITATION OR FOG.

+ - STATION NOT QUALITY CONTROLLED BY THE NATIONAL WEATHER SERVICE.
    USE DATA WITH CAUTION...ESPECIALLY DEWPOINT AND RELATIVE
    HUMIDITY OBSERVATIONS.

INZ001>003-010>013-019-020-250900-
NORTHWEST INDIANA

CITY           SKY/WX    TMP DP  RH WIND       PRES   REMARKS
MICHIGAN CITY+ CLOUDY    52  52 100 N8        29.49S
MONTICELLO +   RAIN      53  52  95 NW16G22   29.44S
RENSSELAER +   CLOUDY    54  50  87 NW12G17   29.48S FOG

$$

LMZ046-743>745-250900-
SOUTHERN LAKE MICHIGAN

STATION/POSITION TIME  TEMP    WIND        PRES    WAVE
                       AIR SEA DIR/SP/G            HT
                 (UTC) (F)     (DEG/KT/KT) (MB)    (FT)
BURNS HARBOR     0740   49     340/ 18/ 22  999.3F
MICHIGAN CITY    0730   50     340/ 20/ 22   N/A
5NW MICH CITY    0750   50 52  340/ 16/ 21   N/A     5

$$

INZ004-005-014>016-021>024-250900-
NORTH CENTRAL INDIANA

CITY           SKY/WX    TMP DP  RH WIND       PRES   REMARKS
GOSHEN         LGT RAIN  59  56  89 N14       29.42S
SOUTH BEND     CLOUDY    57  56  96 N17       29.44F

$$

INZ006>009-017-018-025>027-250900-
NORTHEAST INDIANA

CITY           SKY/WX    TMP DP  RH WIND       PRES   REMARKS
ANGOLA *+      CLOUDY    57  46  67 NE7       29.41S
FORT WAYNE     LGT RAIN  59  57  93 N7        29.37S

$$

INZ028-029-035-036-043>045-051>053-250900-
WEST CENTRAL INDIANA

CITY           SKY/WX    TMP DP  RH WIND       PRES   REMARKS
CRAWFORDSVL +  LGT RAIN  53  53 100 NW14G20   29.46S
GREENCASTLE +  CLOUDY    55  54  94 W7        29.45F
LAFAYETTE      CLOUDY    54  54 100 NW12      29.44F FOG
TERRE HAUTE    CLOUDY    57  53  86 NW14      29.48S

$$

INZ030>032-037>040-046>048-054>057-064-065-250900-
CENTRAL INDIANA

CITY           SKY/WX    TMP DP  RH WIND       PRES   REMARKS
INDIANAPOLIS   RAIN      56  54  93 NW16      29.40F FOG
-EAGLE CREEK   LGT RAIN  56  54  93 NW17      29.39F
KOKOMO +       HVY RAIN  58  57  97 NW14      29.39S FOG
SHELBYVILLE    HVY RAIN  58  54  86 W14       29.37F FOG

$$

INZ033-034-041-042-049-050-058-059-250900-
EAST CENTRAL INDIANA

CITY           SKY/WX    TMP DP  RH WIND       PRES   REMARKS
MUNCIE         LGT RAIN  59  56  89 CALM      29.35S
RICHMOND +     CLOUDY    55  55 100 SW9       29.37S FOG

$$

INZ060-061-067>069-081>083-085>088-250900-
SOUTHWEST INDIANA

CITY           SKY/WX    TMP DP  RH WIND       PRES   REMARKS
EVANSVILLE     CLOUDY    59  55  87 W7        29.53S
HUNTINGBURG *+ CLOUDY    57  55  93 W9        29.50F

$$

INZ062-063-066-070>080-084-089>092-250900-
SOUTH CENTRAL AND SOUTHEAST INDIANA

CITY           SKY/WX    TMP DP  RH WIND       PRES   REMARKS
BLOOMINGTON    CLOUDY    57  54  89 W8        29.45F
MADISON *+     CLOUDY    57  55  94 W8G16     29.44
SEYMOUR +      CLOUDY    59  57  94 W13G18    29.43S

$$





USA.gov is the U.S. government's official web portal to all federal, state and local government web resources and services.